FW9486 Weather Reports


Display with metric or nautical units.
time (UTC)temp
F
wind
direction
speed
MPH
gust
MPH
rain 1hr
in
rain 24hr
in
rain mn
in
humidity
%
barometer
mb
20260507070035 51 0 0.0 1.0 0.00 0.00 0.00 73 1012.1
20260507064535 51 0 0.0 1.0 0.00 0.00 0.00 74 1012.0
20260507063045 51 23 0.0 1.0 0.00 0.00 0.00 75 1012.1
20260507061537 52 0 0.0 1.0 0.00 0.00 0.00 73 1012.2
20260507060048 52 0 0.0 2.0 0.00 0.00 0.00 71 1012.3
20260507054545 54 25 0.0 1.0 0.00 0.00 0.00 68 1012.2
20260507053037 54 0 0.0 1.0 0.00 0.00 0.00 66 1012.4
20260507051537 55 0 0.0 1.0 0.00 0.00 0.00 64 1012.4
20260507050037 56 0 0.0 0.0 0.00 0.00 0.00 61 1012.4
20260507044549 56 19 0.0 1.0 0.00 0.00 0.00 61 1012.5
20260507043036 57 20 0.0 1.0 0.00 0.00 0.00 60 1012.7
20260507041536 58 0 0.0 1.0 0.00 0.00 0.00 58 1012.6
20260507040042 57 20 1.0 1.0 0.00 0.00 0.00 59 1012.7
20260507034538 59 0 0.0 0.0 0.00 0.00 0.00 56 1012.4
20260507033035 59 356 0.0 1.0 0.00 0.00 0.00 55 1012.4
20260507031535 60 0 0.0 1.0 0.00 0.00 0.00 55 1012.3
20260507030035 59 34 0.0 1.0 0.00 0.00 0.00 54 1012.1
20260507024545 60 0 0.0 1.0 0.00 0.00 0.00 56 1012.1
20260507023037 63 0 1.0 3.0 0.00 0.00 0.00 49 1012.0
20260507021536 63 322 1.0 2.0 0.00 0.00 0.00 50 1012.0
20260507020045 65 319 2.0 4.0 0.00 0.00 0.00 44 1012.1
20260507014542 65 321 1.0 3.0 0.00 0.00 0.00 47 1012.1
20260507013049 65 321 2.0 5.0 0.00 0.00 0.00 42 1012.2
20260507011536 66 313 2.0 5.0 0.00 0.00 0.00 41 1012.1
20260507010042 67 314 3.0 9.0 0.00 0.00 0.00 40 1012.2
20260507004537 66 325 3.0 7.0 0.00 0.00 0.00 40 1012.3
20260507003035 66 280 2.0 6.0 0.00 0.00 0.00 42 1012.4
20260507001541 67 217 4.0 12.0 0.00 0.00 0.00 40 1012.4
20260507000035 66 225 7.0 14.0 0.00 0.00 0.00 39 1012.4
20260506234536 68 305 3.0 10.0 0.00 0.00 0.00 39 1012.6
20260506233037 68 264 2.0 11.0 0.00 0.00 0.00 41 1012.6
20260506231538 68 235 3.0 8.0 0.00 0.00 0.00 38 1012.9
20260506230036 67 327 4.0 9.0 0.00 0.00 0.00 38 1013.1
20260506224535 68 251 4.0 12.0 0.00 0.00 0.00 38 1013.1
20260506223035 68 230 5.0 11.0 0.00 0.00 0.00 39 1013.2
20260506221535 68 182 4.0 11.0 0.00 0.00 0.00 37 1013.3
20260506220041 68 309 3.0 11.0 0.00 0.00 0.00 37 1013.5
20260506214535 66 248 5.0 13.0 0.00 0.00 0.00 40 1014.0
20260506213039 66 321 5.0 13.0 0.00 0.00 0.00 39 1014.1
20260506211535 66 340 6.0 13.0 0.00 0.00 0.00 36 1014.0
20260506210043 66 312 3.0 8.0 0.00 0.00 0.00 40 1014.3
20260506204538 67 276 4.0 15.0 0.00 0.00 0.00 35 1014.3
20260506203036 67 290 3.0 10.0 0.00 0.00 0.00 39 1014.5
20260506201536 65 206 4.0 11.0 0.00 0.00 0.00 36 1014.5
20260506200036 65 122 3.0 9.0 0.00 0.00 0.00 37 1014.6
20260506194548 65 324 3.0 8.0 0.00 0.00 0.00 38 1014.9
20260506193035 64 243 2.0 8.0 0.00 0.00 0.00 37 1015.3
20260506191536 63 304 4.0 9.0 0.00 0.00 0.00 40 1015.5
20260506190035 63 290 3.0 8.0 0.00 0.00 0.00 37 1015.4
20260506184534 63 263 4.0 8.0 0.00 0.00 0.00 35 1015.5
20260506183036 63 184 2.0 7.0 0.00 0.00 0.00 40 1015.6
20260506181537 62 277 3.0 8.0 0.00 0.00 0.00 37 1015.7
20260506180042 62 190 3.0 9.0 0.00 0.00 0.00 36 1015.7
20260506174536 61 0 2.0 7.0 0.00 0.00 0.00 40 1015.9
20260506173035 60 312 2.0 6.0 0.00 0.00 0.00 40 1015.9
20260506171551 58 229 2.0 7.0 0.00 0.00 0.00 38 1016.0
20260506170040 58 255 3.0 7.0 0.00 0.00 0.00 38 1016.1
20260506164536 57 217 3.0 7.0 0.00 0.00 0.00 40 1016.1
20260506163042 57 304 2.0 7.0 0.00 0.00 0.00 41 1016.1
20260506161535 55 193 4.0 9.0 0.00 0.00 0.00 42 1016.2
20260506160043 56 280 3.0 7.0 0.00 0.00 0.00 44 1016.2
20260506154544 54 0 0.0 5.0 0.00 0.00 0.00 47 1016.2
20260506153035 55 146 1.0 4.0 0.00 0.00 0.00 51 1016.2
20260506151538 54 321 0.0 3.0 0.00 0.00 0.00 52 1016.1
20260506150036 51 311 1.0 7.0 0.00 0.00 0.00 54 1016.1
20260506144537 50 276 1.0 4.0 0.00 0.00 0.00 61 1016.1
20260506143036 46 0 0.0 3.0 0.00 0.00 0.00 74 1016.0
20260506141537 47 0 0.0 1.0 0.00 0.00 0.00 78 1015.8
20260506140043 42 36 0.0 2.0 0.00 0.00 0.00 86 1015.7
20260506134538 38 0 0.0 2.0 0.00 0.00 0.00 89 1015.5
20260506133046 40 121 1.0 3.0 0.00 0.00 0.00 86 1015.2
20260506131537 39 0 0.0 1.0 0.00 0.00 0.00 89 1014.7
20260506130037 39 0 0.0 1.0 0.00 0.00 0.00 89 1014.5
20260506124535 37 0 1.0 1.0 0.00 0.00 0.00 90 1014.5
20260506123036 38 69 0.0 1.0 0.00 0.00 0.00 88 1014.3
20260506121539 39 0 0.0 0.0 0.00 0.00 0.00 86 1014.2
20260506120040 39 0 0.0 0.0 0.00 0.00 0.00 86 1014.0
20260506114536 38 0 0.0 1.0 0.00 0.00 0.00 88 1013.7
20260506113045 38 0 0.0 0.0 0.00 0.00 0.00 85 1013.7
20260506111536 39 0 0.0 0.0 0.00 0.00 0.00 84 1013.5
20260506110041 40 0 0.0 1.0 0.00 0.00 0.00 84 1013.3
20260506104545 39 0 0.0 0.0 0.00 0.00 0.00 86 1013.1
20260506103038 39 0 0.0 0.0 0.00 0.00 0.00 84 1012.9
20260506101545 40 0 0.0 0.0 0.00 0.00 0.00 81 1012.8
20260506100035 41 0 0.0 0.0 0.00 0.00 0.00 81 1012.8
20260506094535 41 0 0.0 0.0 0.00 0.00 0.00 80 1012.6
20260506093035 41 0 0.0 0.0 0.00 0.00 0.00 81 1012.5
20260506091536 41 0 0.0 0.0 0.00 0.00 0.00 79 1012.5
20260506090036 42 0 0.0 1.0 0.00 0.00 0.00 78 1012.4
20260506084541 42 0 0.0 1.0 0.00 0.00 0.00 78 1012.4
20260506083034 43 0 0.0 0.0 0.00 0.00 0.00 75 1012.3
20260506081537 45 0 0.0 0.0 0.00 0.00 0.00 69 1012.2
20260506073037 45 0 0.0 1.0 0.00 0.00 0.00 71 1011.8
20260506071534 45 0 0.0 1.0 0.00 0.00 0.00 72 1011.8